Location: Clanezzo
(45.7500°N, 9.6000°E)
Time: 09:35:42
(UTC+00:00)

STARS - Pass Details

Date: 06 July 2022
Orbit: 620 x 637 km, 98.2° (Epoch: 14 August)

Event Time Altitude Azimuth Distance (km) Brightness Sun altitude
Rises 22:40:01 0° 7° (N) 2,929 ? -20.8°
Reaches altitude 10° 22:42:18 10° 1° (N) 2,014 ? -20.9°
Maximum altitude 22:46:27 45° 290° (WNW) 861 ? -21.0°
Enters shadow 22:48:12 29° 237° (WSW) 1,148 ? -21.1°
